Terug naar catalogus

STARLINK-35028

ActiefCommunicatieSSO
NORAD 65381·PAYLOAD·🇺🇸 United States

Gelanceerd Aug 30, 2025 vanaf Vandenberg Space Force Base

Loading…

Volgende Passages (komende 24 uur)

TLE

VersSource: CelesTrak SupGP

Epoch: Sep 15, 2026, 02:22 UTC

1 65381C 25191C   26258.09909722  .00045671  00000+0  14165-2 0  2581
2 65381  97.2845 124.1728 0001690 102.8371  81.1354 15.33443569    19

Volg STARLINK-35028 in realtime met AllMySat

Download on the App Store